Delta Virtual Airport Information Service

Paris Charles de Gaulle Airport

ICAO: LFPG Country: France
Latitude: 49.0125 Longitude: 2.55575
Latest Arrival : AFR55 (KIAD-LFPG) Latest Departure : BAW319 (1) (LFPG-EGLL)


WX CaptureLIVE
Data provided by noaa.gov | Fetched at 09:06:06

METAR : LFPG 041430Z 33013KT 5000 -SHRA BKN016 SCT020TCU BKN050 10/06 Q1020 TEMPO 4000 SHRA SCT009CB

TAF : LFPG 041100Z 0412/0518 30010KT 9999 BKN015 TX12/0413Z TN02/0506Z PROB40 TEMPO 0412/0417 4000 SHRA SCT009CB BECMG 0418/0420 01010KT BKN012 PROB30 TEMPO 0508/0510 BKN009 BECMG 0516/0518 CAVOK


Runway Data for LFPG
Data provided by openaviationdata.com

Runway ID Mag Var Hdg Length Elevation Surface ILS Freq ILS Id ILS Slope
08L -2 87° 13944 ft 392 ft Macadam 108.7 GLE 3
08R -2 87° 8832 ft 392 ft Concrete 108.55 DSE 3
09L -2 87° 8840 ft 392 ft Tarmac 109.35 PNE 3
09R -2 87° 13780 ft 392 ft Macadam 110.1 CGE 3
26L -2 267° 8832 ft 392 ft Concrete 108.35 DSU 3
26R -2 267° 13944 ft 392 ft Macadam 109.1 GAU 3
27L -2 267° 13780 ft 392 ft Macadam 110.7 CGW 3
27R -2 267° 8840 ft 392 ft Tarmac 110.35 PNW 3

Paris Charles de Gaulle Airport, France
Use only for reference purposes



Not for navigational purposes.